Year,Month,Day,Hour,Minute,Value (Times are PST for temperature in C)
2015,10,16,00,00,8.10
2015,10,16,00,01,8.00
2015,10,16,00,02,8.00
2015,10,16,00,03,8.00
2015,10,16,00,04,8.00
2015,10,16,00,05,7.90
2015,10,16,00,06,7.90
2015,10,16,00,07,7.90
2015,10,16,00,08,7.90
2015,10,16,00,09,7.90
2015,10,16,00,10,7.90
2015,10,16,00,11,7.90
2015,10,16,00,12,7.90
2015,10,16,00,13,7.90
2015,10,16,00,14,7.90
2015,10,16,00,15,7.90
2015,10,16,00,16,7.90
2015,10,16,00,17,7.90
2015,10,16,00,18,7.80
2015,10,16,00,19,7.80
2015,10,16,00,20,7.90
2015,10,16,00,21,7.80
2015,10,16,00,22,7.80
2015,10,16,00,23,7.80
2015,10,16,00,24,7.80
2015,10,16,00,25,7.80
2015,10,16,00,26,7.80
2015,10,16,00,27,7.80
2015,10,16,00,28,7.80
2015,10,16,00,29,7.80
2015,10,16,00,30,7.80
2015,10,16,00,31,7.80
2015,10,16,00,32,7.80
2015,10,16,00,33,7.80
2015,10,16,00,34,7.80
2015,10,16,00,35,7.80
2015,10,16,00,36,7.80
2015,10,16,00,37,7.80
2015,10,16,00,38,7.80
2015,10,16,00,39,7.80
2015,10,16,00,40,7.80
2015,10,16,00,41,7.80
2015,10,16,00,42,7.80
2015,10,16,00,43,7.80
2015,10,16,00,44,7.80
2015,10,16,00,45,7.70
2015,10,16,00,46,7.70
2015,10,16,00,47,7.70
2015,10,16,00,48,7.70
2015,10,16,00,49,7.70
2015,10,16,00,50,7.70
2015,10,16,00,51,7.70
2015,10,16,00,52,7.70
2015,10,16,00,53,7.70
2015,10,16,00,54,7.70
2015,10,16,00,55,7.70
2015,10,16,00,56,7.70
2015,10,16,00,57,7.60
2015,10,16,00,58,7.60
2015,10,16,00,59,7.60
2015,10,16,01,00,7.60
2015,10,16,01,01,7.60
2015,10,16,01,02,7.60
2015,10,16,01,03,7.60
2015,10,16,01,04,7.50
2015,10,16,01,05,7.50
2015,10,16,01,06,7.50
2015,10,16,01,07,7.50
2015,10,16,01,08,7.50
2015,10,16,01,09,7.50
2015,10,16,01,10,7.40
2015,10,16,01,11,7.40
2015,10,16,01,12,7.40
2015,10,16,01,13,7.40
2015,10,16,01,14,7.40
2015,10,16,01,15,7.40
2015,10,16,01,16,7.40
2015,10,16,01,17,7.40
2015,10,16,01,18,7.40
2015,10,16,01,19,7.40
2015,10,16,01,20,7.40
2015,10,16,01,21,7.40
2015,10,16,01,22,7.40
2015,10,16,01,23,7.40
2015,10,16,01,24,7.40
2015,10,16,01,25,7.40
2015,10,16,01,26,7.40
2015,10,16,01,27,7.40
2015,10,16,01,28,7.40
2015,10,16,01,29,7.40
2015,10,16,01,30,7.40
2015,10,16,01,31,7.40
2015,10,16,01,32,7.40
2015,10,16,01,33,7.40
2015,10,16,01,34,7.40
2015,10,16,01,35,7.40
2015,10,16,01,36,7.40
2015,10,16,01,37,7.40
2015,10,16,01,38,7.30
2015,10,16,01,39,7.30
2015,10,16,01,40,7.30
2015,10,16,01,41,7.30
2015,10,16,01,42,7.30
2015,10,16,01,43,7.30
2015,10,16,01,44,7.30
2015,10,16,01,45,7.30
2015,10,16,01,46,7.30
2015,10,16,01,47,7.20
2015,10,16,01,48,7.20
2015,10,16,01,49,7.20
2015,10,16,01,50,7.20
2015,10,16,01,51,7.20
2015,10,16,01,52,7.20
2015,10,16,01,53,7.20
2015,10,16,01,54,7.20
2015,10,16,01,55,7.20
2015,10,16,01,56,7.20
2015,10,16,01,57,7.20
2015,10,16,01,58,7.20
2015,10,16,01,59,7.20
2015,10,16,02,00,7.20
2015,10,16,02,01,7.20
2015,10,16,02,02,7.20
2015,10,16,02,03,7.20
2015,10,16,02,04,7.20
2015,10,16,02,05,7.20
2015,10,16,02,06,7.20
2015,10,16,02,07,7.20
2015,10,16,02,08,7.20
2015,10,16,02,09,7.20
2015,10,16,02,10,7.20
2015,10,16,02,11,7.20
2015,10,16,02,12,7.20
2015,10,16,02,13,7.20
2015,10,16,02,14,7.20
2015,10,16,02,15,7.20
2015,10,16,02,16,7.20
2015,10,16,02,17,7.20
2015,10,16,02,18,7.20
2015,10,16,02,19,7.20
2015,10,16,02,20,7.20
2015,10,16,02,21,7.20
2015,10,16,02,22,7.20
2015,10,16,02,23,7.20
2015,10,16,02,24,7.20
2015,10,16,02,25,7.10
2015,10,16,02,26,7.10
2015,10,16,02,27,7.10
2015,10,16,02,28,7.10
2015,10,16,02,29,7.10
2015,10,16,02,30,7.10
2015,10,16,02,31,7.10
2015,10,16,02,32,7.10
2015,10,16,02,33,7.10
2015,10,16,02,34,7.10
2015,10,16,02,35,7.10
2015,10,16,02,36,7.10
2015,10,16,02,37,7.10
2015,10,16,02,38,7.00
2015,10,16,02,39,7.00
2015,10,16,02,40,7.00
2015,10,16,02,41,7.00
2015,10,16,02,42,7.00
2015,10,16,02,43,7.00
2015,10,16,02,44,7.00
2015,10,16,02,45,7.00
2015,10,16,02,46,7.00
2015,10,16,02,47,7.00
2015,10,16,02,48,7.00
2015,10,16,02,49,7.00
2015,10,16,02,50,7.00
2015,10,16,02,51,7.00
2015,10,16,02,52,7.00
2015,10,16,02,53,7.00
2015,10,16,02,54,7.00
2015,10,16,02,55,6.90
2015,10,16,02,56,6.90
2015,10,16,02,57,6.90
2015,10,16,02,58,6.90
2015,10,16,02,59,6.90
2015,10,16,03,00,6.90
2015,10,16,03,01,6.90
2015,10,16,03,02,6.90
2015,10,16,03,03,6.90
2015,10,16,03,04,6.90
2015,10,16,03,05,6.90
2015,10,16,03,06,6.90
2015,10,16,03,07,6.90
2015,10,16,03,08,6.90
2015,10,16,03,09,6.90
2015,10,16,03,10,6.90
2015,10,16,03,11,6.90
2015,10,16,03,12,6.90
2015,10,16,03,13,6.90
2015,10,16,03,14,6.90
2015,10,16,03,15,6.90
2015,10,16,03,16,6.90
2015,10,16,03,17,6.90
2015,10,16,03,18,6.90
2015,10,16,03,19,6.80
2015,10,16,03,20,6.80
2015,10,16,03,21,6.80
2015,10,16,03,22,6.80
2015,10,16,03,23,6.80
2015,10,16,03,24,6.80
2015,10,16,03,25,6.80
2015,10,16,03,26,6.80
2015,10,16,03,27,6.80
2015,10,16,03,28,6.80
2015,10,16,03,29,6.80
2015,10,16,03,30,6.80
2015,10,16,03,31,6.80
2015,10,16,03,32,6.80
2015,10,16,03,33,6.80
2015,10,16,03,34,6.80
2015,10,16,03,35,6.80
2015,10,16,03,36,6.80
2015,10,16,03,37,6.80
2015,10,16,03,38,6.80
2015,10,16,03,39,6.80
2015,10,16,03,40,6.80
2015,10,16,03,41,6.80
2015,10,16,03,42,6.70
2015,10,16,03,43,6.70
2015,10,16,03,44,6.70
2015,10,16,03,45,6.70
2015,10,16,03,46,6.70
2015,10,16,03,47,6.70
2015,10,16,03,48,6.70
2015,10,16,03,49,6.70
2015,10,16,03,50,6.70
2015,10,16,03,51,6.70
2015,10,16,03,52,6.70
2015,10,16,03,53,6.70
2015,10,16,03,54,6.70
2015,10,16,03,55,6.70
2015,10,16,03,56,6.70
2015,10,16,03,57,6.70
2015,10,16,03,58,6.70
2015,10,16,03,59,6.70
2015,10,16,04,00,6.70
2015,10,16,04,01,6.70
2015,10,16,04,02,6.70
2015,10,16,04,03,6.70
2015,10,16,04,04,6.70
2015,10,16,04,05,6.60
2015,10,16,04,06,6.60
2015,10,16,04,07,6.60
2015,10,16,04,08,6.60
2015,10,16,04,09,6.60
2015,10,16,04,10,6.60
2015,10,16,04,11,6.60
2015,10,16,04,12,6.60
2015,10,16,04,13,6.60
2015,10,16,04,14,6.60
2015,10,16,04,15,6.60
2015,10,16,04,16,6.60
2015,10,16,04,17,6.60
2015,10,16,04,18,6.60
2015,10,16,04,19,6.70
2015,10,16,04,20,6.70
2015,10,16,04,21,6.70
2015,10,16,04,22,6.70
2015,10,16,04,23,6.70
2015,10,16,04,24,6.70
2015,10,16,04,25,6.70
2015,10,16,04,26,6.70
2015,10,16,04,27,6.70
2015,10,16,04,28,6.70
2015,10,16,04,29,6.70
2015,10,16,04,30,6.70
2015,10,16,04,31,6.60
2015,10,16,04,32,6.60
2015,10,16,04,33,6.60
2015,10,16,04,34,6.60
2015,10,16,04,35,6.60
2015,10,16,04,36,6.60
2015,10,16,04,37,6.60
2015,10,16,04,38,6.60
2015,10,16,04,39,6.60
2015,10,16,04,40,6.60
2015,10,16,04,41,6.50
2015,10,16,04,42,6.50
2015,10,16,04,43,6.50
2015,10,16,04,44,6.50
2015,10,16,04,45,6.50
2015,10,16,04,46,6.50
2015,10,16,04,47,6.50
2015,10,16,04,48,6.40
2015,10,16,04,49,6.50
2015,10,16,04,50,6.50
2015,10,16,04,51,6.50
2015,10,16,04,52,6.50
2015,10,16,04,53,6.50
2015,10,16,04,54,6.50
2015,10,16,04,55,6.50
2015,10,16,04,56,6.50
2015,10,16,04,57,6.50
2015,10,16,04,58,6.50
2015,10,16,04,59,6.60
2015,10,16,05,00,6.60
2015,10,16,05,01,6.60
2015,10,16,05,02,6.60
2015,10,16,05,03,6.60
2015,10,16,05,04,6.60
2015,10,16,05,05,6.50
2015,10,16,05,06,6.50
2015,10,16,05,07,6.50
2015,10,16,05,08,6.50
2015,10,16,05,09,6.50
2015,10,16,05,10,6.50
2015,10,16,05,11,6.50
2015,10,16,05,12,6.50
2015,10,16,05,13,6.40
2015,10,16,05,14,6.40
2015,10,16,05,15,6.40
2015,10,16,05,16,6.40
2015,10,16,05,17,6.40
2015,10,16,05,18,6.40
2015,10,16,05,19,6.40
2015,10,16,05,20,6.40
2015,10,16,05,21,6.40
2015,10,16,05,22,6.40
2015,10,16,05,23,6.40
2015,10,16,05,24,6.40
2015,10,16,05,25,6.40
2015,10,16,05,26,6.40
2015,10,16,05,27,6.40
2015,10,16,05,28,6.40
2015,10,16,05,29,6.40
2015,10,16,05,30,6.40
2015,10,16,05,31,6.40
2015,10,16,05,32,6.40
2015,10,16,05,33,6.40
2015,10,16,05,34,6.40
2015,10,16,05,35,6.40
2015,10,16,05,36,6.40
2015,10,16,05,37,6.40
2015,10,16,05,38,6.40
2015,10,16,05,39,6.40
2015,10,16,05,40,6.40
2015,10,16,05,41,6.40
2015,10,16,05,42,6.40
2015,10,16,05,43,6.40
2015,10,16,05,44,6.40
2015,10,16,05,45,6.40
2015,10,16,05,46,6.40
2015,10,16,05,47,6.40
2015,10,16,05,48,6.40
2015,10,16,05,49,6.40
2015,10,16,05,50,6.40
2015,10,16,05,51,6.40
2015,10,16,05,52,6.40
2015,10,16,05,53,6.40
2015,10,16,05,54,6.40
2015,10,16,05,55,6.40
2015,10,16,05,56,6.40
2015,10,16,05,57,6.40
2015,10,16,05,58,6.40
2015,10,16,05,59,6.40
2015,10,16,06,00,6.40
2015,10,16,06,01,6.40
2015,10,16,06,02,6.40
2015,10,16,06,03,6.40
2015,10,16,06,04,6.40
2015,10,16,06,05,6.40
2015,10,16,06,06,6.40
2015,10,16,06,07,6.40
2015,10,16,06,08,6.40
2015,10,16,06,09,6.40
2015,10,16,06,10,6.40
2015,10,16,06,11,6.40
2015,10,16,06,12,6.40
2015,10,16,06,13,6.40
2015,10,16,06,14,6.40
2015,10,16,06,15,6.40
2015,10,16,06,16,6.40
2015,10,16,06,17,6.40
2015,10,16,06,18,6.40
2015,10,16,06,19,6.40
2015,10,16,06,20,6.40
2015,10,16,06,21,6.40
2015,10,16,06,22,6.40
2015,10,16,06,23,6.40
2015,10,16,06,24,6.40
2015,10,16,06,25,6.40
2015,10,16,06,26,6.40
2015,10,16,06,27,6.40
2015,10,16,06,28,6.40
2015,10,16,06,29,6.40
2015,10,16,06,30,6.40
2015,10,16,06,31,6.40
2015,10,16,06,32,6.40
2015,10,16,06,33,6.40
2015,10,16,06,34,6.40
2015,10,16,06,35,6.40
2015,10,16,06,36,6.40
2015,10,16,06,37,6.40
2015,10,16,06,38,6.40
2015,10,16,06,39,6.40
2015,10,16,06,40,6.40
2015,10,16,06,41,6.40
2015,10,16,06,42,6.40
2015,10,16,06,43,6.40
2015,10,16,06,44,6.40
2015,10,16,06,45,6.40
2015,10,16,06,46,6.40
2015,10,16,06,47,6.40
2015,10,16,06,48,6.30
2015,10,16,06,49,6.30
2015,10,16,06,50,6.30
2015,10,16,06,51,6.30
2015,10,16,06,52,6.30
2015,10,16,06,53,6.30
2015,10,16,06,54,6.30
2015,10,16,06,55,6.30
2015,10,16,06,56,6.30
2015,10,16,06,57,6.30
2015,10,16,06,58,6.30
2015,10,16,06,59,6.30
2015,10,16,07,00,6.30
2015,10,16,07,01,6.30
2015,10,16,07,02,6.30
2015,10,16,07,03,6.30
2015,10,16,07,04,6.30
2015,10,16,07,05,6.30
2015,10,16,07,06,6.30
2015,10,16,07,07,6.30
2015,10,16,07,08,6.30
2015,10,16,07,09,6.30
2015,10,16,07,10,6.30
2015,10,16,07,11,6.30
2015,10,16,07,12,6.30
2015,10,16,07,13,6.30
2015,10,16,07,14,6.30
2015,10,16,07,15,6.30
2015,10,16,07,16,6.30
2015,10,16,07,17,6.30
2015,10,16,07,18,6.30
2015,10,16,07,19,6.30
2015,10,16,07,20,6.30
2015,10,16,07,21,6.30
2015,10,16,07,22,6.30
2015,10,16,07,23,6.30
2015,10,16,07,24,6.30
2015,10,16,07,25,6.30
2015,10,16,07,26,6.30
2015,10,16,07,27,6.30
2015,10,16,07,28,6.30
2015,10,16,07,29,6.30
2015,10,16,07,30,6.30
2015,10,16,07,31,6.30
2015,10,16,07,32,6.30
2015,10,16,07,33,6.30
2015,10,16,07,34,6.30
2015,10,16,07,35,6.30
2015,10,16,07,36,6.30
2015,10,16,07,37,6.30
2015,10,16,07,38,6.40
2015,10,16,07,39,6.40
2015,10,16,07,40,6.40
2015,10,16,07,41,6.40
2015,10,16,07,42,6.40
2015,10,16,07,43,6.40
2015,10,16,07,44,6.30
2015,10,16,07,45,6.40
2015,10,16,07,46,6.40
2015,10,16,07,47,6.40
2015,10,16,07,48,6.40
2015,10,16,07,49,6.30
2015,10,16,07,50,6.30
2015,10,16,07,51,6.40
2015,10,16,07,52,6.40
2015,10,16,07,53,6.40
2015,10,16,07,54,6.40
2015,10,16,07,55,6.40
2015,10,16,07,56,6.40
2015,10,16,07,57,6.40
2015,10,16,07,58,6.40
2015,10,16,07,59,6.40
2015,10,16,08,00,6.40
2015,10,16,08,01,6.40
2015,10,16,08,02,6.40
2015,10,16,08,03,6.40
2015,10,16,08,04,6.40
2015,10,16,08,05,6.40
2015,10,16,08,06,6.40
2015,10,16,08,07,6.40
2015,10,16,08,08,6.40
2015,10,16,08,09,6.40
2015,10,16,08,10,6.40
2015,10,16,08,11,6.40
2015,10,16,08,12,6.50
2015,10,16,08,13,6.50
2015,10,16,08,14,6.50
2015,10,16,08,15,6.50
2015,10,16,08,16,6.50
2015,10,16,08,17,6.50
2015,10,16,08,18,6.50
2015,10,16,08,19,6.50
2015,10,16,08,20,6.50
2015,10,16,08,21,6.50
2015,10,16,08,22,6.50
2015,10,16,08,23,6.60
2015,10,16,08,24,6.60
2015,10,16,08,25,6.60
2015,10,16,08,26,6.60
2015,10,16,08,27,6.60
2015,10,16,08,28,6.60
2015,10,16,08,29,6.60
2015,10,16,08,30,6.60
2015,10,16,08,31,6.60
2015,10,16,08,32,6.60
2015,10,16,08,33,6.60
2015,10,16,08,34,6.60
2015,10,16,08,35,6.60
2015,10,16,08,36,6.60
2015,10,16,08,37,6.60
2015,10,16,08,38,6.70
2015,10,16,08,39,6.70
2015,10,16,08,40,6.70
2015,10,16,08,41,6.70
2015,10,16,08,42,6.70
2015,10,16,08,43,6.70
2015,10,16,08,44,6.70
2015,10,16,08,45,6.70
2015,10,16,08,46,6.70
2015,10,16,08,47,6.70
2015,10,16,08,48,6.70
2015,10,16,08,49,6.70
2015,10,16,08,50,6.70
2015,10,16,08,51,6.70
2015,10,16,08,52,6.70
2015,10,16,08,53,6.70
2015,10,16,08,54,6.80
2015,10,16,08,55,6.80
2015,10,16,08,56,6.80
2015,10,16,08,57,6.80
2015,10,16,08,58,6.80
2015,10,16,08,59,6.80
2015,10,16,09,00,6.80
2015,10,16,09,01,6.80
2015,10,16,09,02,6.80
2015,10,16,09,03,6.80
2015,10,16,09,04,6.80
2015,10,16,09,05,6.80
2015,10,16,09,06,6.80
2015,10,16,09,07,6.80
2015,10,16,09,08,6.80
2015,10,16,09,09,6.80
2015,10,16,09,10,6.80
2015,10,16,09,11,6.80
2015,10,16,09,12,6.80
2015,10,16,09,13,6.80
2015,10,16,09,14,6.80
2015,10,16,09,15,6.90
2015,10,16,09,16,6.90
2015,10,16,09,17,6.90
2015,10,16,09,18,6.90
2015,10,16,09,19,6.90
2015,10,16,09,20,7.00
2015,10,16,09,21,7.00
2015,10,16,09,22,7.00
2015,10,16,09,23,7.10
2015,10,16,09,24,7.10
2015,10,16,09,25,7.10
2015,10,16,09,26,7.10
2015,10,16,09,27,7.10
2015,10,16,09,28,7.10
2015,10,16,09,29,7.10
2015,10,16,09,30,7.20
2015,10,16,09,31,7.20
2015,10,16,09,32,7.20
2015,10,16,09,33,7.20
2015,10,16,09,34,7.20
2015,10,16,09,35,7.20
2015,10,16,09,36,7.30
2015,10,16,09,37,7.30
2015,10,16,09,38,7.30
2015,10,16,09,39,7.30
2015,10,16,09,40,7.40
2015,10,16,09,41,7.40
2015,10,16,09,42,7.40
2015,10,16,09,43,7.50
2015,10,16,09,44,7.50
2015,10,16,09,45,7.50
2015,10,16,09,46,7.60
2015,10,16,09,47,7.60
2015,10,16,09,48,7.60
2015,10,16,09,49,7.70
2015,10,16,09,50,7.70
2015,10,16,09,51,7.70
2015,10,16,09,52,7.80
2015,10,16,09,53,7.80
2015,10,16,09,54,7.80
2015,10,16,09,55,7.80
2015,10,16,09,56,7.90
2015,10,16,09,57,7.90
2015,10,16,09,58,7.90
2015,10,16,09,59,7.90
2015,10,16,10,00,8.00
2015,10,16,10,01,8.00
2015,10,16,10,02,8.10
2015,10,16,10,03,8.10
2015,10,16,10,04,8.10
2015,10,16,10,05,8.10
2015,10,16,10,06,8.20
2015,10,16,10,07,8.20
2015,10,16,10,08,8.20
2015,10,16,10,09,8.30
2015,10,16,10,10,8.30
2015,10,16,10,11,8.30
2015,10,16,10,12,8.30
2015,10,16,10,13,8.40
2015,10,16,10,14,8.40
2015,10,16,10,15,8.40
2015,10,16,10,16,8.40
2015,10,16,10,17,8.50
2015,10,16,10,18,8.50
2015,10,16,10,19,8.60
2015,10,16,10,20,8.60
2015,10,16,10,21,8.60
2015,10,16,10,22,8.70
2015,10,16,10,23,8.70
2015,10,16,10,24,8.80
2015,10,16,10,25,8.80
2015,10,16,10,26,8.90
2015,10,16,10,27,8.90
2015,10,16,10,28,9.00
2015,10,16,10,29,9.00
2015,10,16,10,30,9.10
2015,10,16,10,31,9.10
2015,10,16,10,32,9.20
2015,10,16,10,33,9.20
2015,10,16,10,34,9.30
2015,10,16,10,35,9.30
2015,10,16,10,36,9.40
2015,10,16,10,37,9.50
2015,10,16,10,38,9.50
2015,10,16,10,39,9.50
2015,10,16,10,40,9.60
2015,10,16,10,41,9.60
2015,10,16,10,42,9.60
2015,10,16,10,43,9.70
2015,10,16,10,44,9.70
2015,10,16,10,45,9.80
2015,10,16,10,46,9.80
2015,10,16,10,47,9.80
2015,10,16,10,48,9.90
2015,10,16,10,49,9.90
2015,10,16,10,50,9.90
2015,10,16,10,51,10.00
2015,10,16,10,52,10.00
2015,10,16,10,53,10.10
2015,10,16,10,54,10.10
2015,10,16,10,55,10.20
2015,10,16,10,56,10.20
2015,10,16,10,57,10.20
2015,10,16,10,58,10.30
2015,10,16,10,59,10.30
2015,10,16,11,00,10.40
2015,10,16,11,01,10.50
2015,10,16,11,02,10.50
2015,10,16,11,03,10.60
2015,10,16,11,04,10.60
2015,10,16,11,05,10.70
2015,10,16,11,06,10.70
2015,10,16,11,07,10.80
2015,10,16,11,08,10.90
2015,10,16,11,09,10.90
2015,10,16,11,10,11.00
2015,10,16,11,11,11.00
2015,10,16,11,12,11.10
2015,10,16,11,13,11.10
2015,10,16,11,14,11.20
2015,10,16,11,15,11.20
2015,10,16,11,16,11.20
2015,10,16,11,17,11.30
2015,10,16,11,18,11.30
2015,10,16,11,19,11.30
2015,10,16,11,20,11.30
2015,10,16,11,21,11.30
2015,10,16,11,22,11.30
2015,10,16,11,23,11.40
2015,10,16,11,24,11.40
2015,10,16,11,25,11.40
2015,10,16,11,26,11.40
2015,10,16,11,27,11.50
2015,10,16,11,28,11.50
2015,10,16,11,29,11.50
2015,10,16,11,30,11.60
2015,10,16,11,31,11.60
2015,10,16,11,32,11.60
2015,10,16,11,33,11.70
2015,10,16,11,34,11.70
2015,10,16,11,35,11.70
2015,10,16,11,36,11.80
2015,10,16,11,37,11.80
2015,10,16,11,38,11.90
2015,10,16,11,39,11.90
2015,10,16,11,40,12.00
2015,10,16,11,41,12.00
2015,10,16,11,42,12.10
2015,10,16,11,43,12.10
2015,10,16,11,44,12.20
2015,10,16,11,45,12.20
2015,10,16,11,46,12.30
2015,10,16,11,47,12.40
2015,10,16,11,48,12.50
2015,10,16,11,49,12.60
2015,10,16,11,50,12.70
2015,10,16,11,51,12.80
2015,10,16,11,52,12.90
2015,10,16,11,53,13.00
2015,10,16,11,54,13.10
2015,10,16,11,55,13.20
2015,10,16,11,56,13.40
2015,10,16,11,57,13.60
2015,10,16,11,58,13.70
2015,10,16,11,59,13.80
2015,10,16,12,00,13.90
2015,10,16,12,01,14.00
2015,10,16,12,02,14.10
2015,10,16,12,03,14.20
2015,10,16,12,04,14.40
2015,10,16,12,05,14.50
2015,10,16,12,06,14.60
2015,10,16,12,07,14.70
2015,10,16,12,08,14.80
2015,10,16,12,09,14.90
2015,10,16,12,10,15.00
2015,10,16,12,11,15.00
2015,10,16,12,12,15.00
2015,10,16,12,13,15.00
2015,10,16,12,14,15.20
2015,10,16,12,15,15.30
2015,10,16,12,16,15.40
2015,10,16,12,17,15.40
2015,10,16,12,18,15.50
2015,10,16,12,19,15.60
2015,10,16,12,20,15.70
2015,10,16,12,21,15.80
2015,10,16,12,22,15.90
2015,10,16,12,23,16.00
2015,10,16,12,24,16.00
2015,10,16,12,25,16.10
2015,10,16,12,26,16.20
2015,10,16,12,27,16.20
2015,10,16,12,28,16.30
2015,10,16,12,29,16.30
2015,10,16,12,30,16.40
2015,10,16,12,31,16.40
2015,10,16,12,32,16.40
2015,10,16,12,33,16.40
2015,10,16,12,34,16.40
2015,10,16,12,35,16.50
2015,10,16,12,36,16.50
2015,10,16,12,37,16.50
2015,10,16,12,38,16.50
2015,10,16,12,39,16.60
2015,10,16,12,40,16.60
2015,10,16,12,41,16.60
2015,10,16,12,42,16.60
2015,10,16,12,43,16.60
2015,10,16,12,44,16.70
2015,10,16,12,45,16.70
2015,10,16,12,46,16.70
2015,10,16,12,47,16.70
2015,10,16,12,48,16.70
2015,10,16,12,49,16.70
2015,10,16,12,50,16.70
2015,10,16,12,51,16.70
2015,10,16,12,52,16.70
2015,10,16,12,53,16.70
2015,10,16,12,54,16.70
2015,10,16,12,55,16.80
2015,10,16,12,56,16.80
2015,10,16,12,57,16.80
2015,10,16,12,58,16.80
2015,10,16,12,59,16.90
2015,10,16,13,00,16.90
2015,10,16,13,01,17.00
2015,10,16,13,02,17.00
2015,10,16,13,03,17.10
2015,10,16,13,04,17.10
2015,10,16,13,05,17.20
2015,10,16,13,06,17.20
2015,10,16,13,07,17.30
2015,10,16,13,08,17.30
2015,10,16,13,09,17.30
2015,10,16,13,10,17.30
2015,10,16,13,11,17.40
2015,10,16,13,12,17.40
2015,10,16,13,13,17.50
2015,10,16,13,14,17.60
2015,10,16,13,15,17.60
2015,10,16,13,16,17.70
2015,10,16,13,17,17.80
2015,10,16,13,18,17.90
2015,10,16,13,19,18.00
2015,10,16,13,20,18.00
2015,10,16,13,21,18.10
2015,10,16,13,22,18.10
2015,10,16,13,23,18.10
2015,10,16,13,24,18.20
2015,10,16,13,25,18.20
2015,10,16,13,26,18.30
2015,10,16,13,27,18.30
2015,10,16,13,28,18.30
2015,10,16,13,29,18.30
2015,10,16,13,30,18.30
2015,10,16,13,31,18.40
2015,10,16,13,32,18.40
2015,10,16,13,33,18.50
2015,10,16,13,34,18.60
2015,10,16,13,35,18.60
2015,10,16,13,36,18.70
2015,10,16,13,37,18.70
2015,10,16,13,38,18.70
2015,10,16,13,39,18.70
2015,10,16,13,40,18.70
2015,10,16,13,41,18.60
2015,10,16,13,42,18.60
2015,10,16,13,43,18.60
2015,10,16,13,44,18.60
2015,10,16,13,45,18.60
2015,10,16,13,46,18.60
2015,10,16,13,47,18.50
2015,10,16,13,48,18.50
2015,10,16,13,49,18.50
2015,10,16,13,50,18.50
2015,10,16,13,51,18.50
2015,10,16,13,52,18.50
2015,10,16,13,53,18.40
2015,10,16,13,54,18.40
2015,10,16,13,55,18.40
2015,10,16,13,56,18.40
2015,10,16,13,57,18.40
2015,10,16,13,58,18.40
2015,10,16,13,59,18.40
2015,10,16,14,00,18.40
2015,10,16,14,01,18.50
2015,10,16,14,02,18.50
2015,10,16,14,03,18.50
2015,10,16,14,04,18.50
2015,10,16,14,05,18.50
2015,10,16,14,06,18.50
2015,10,16,14,07,18.50
2015,10,16,14,08,18.50
2015,10,16,14,09,18.50
2015,10,16,14,10,18.50
2015,10,16,14,11,18.50
2015,10,16,14,12,18.60
2015,10,16,14,13,18.60
2015,10,16,14,14,18.70
2015,10,16,14,15,18.70
2015,10,16,14,16,18.80
2015,10,16,14,17,18.80
2015,10,16,14,18,18.90
2015,10,16,14,19,18.90
2015,10,16,14,20,18.90
2015,10,16,14,21,18.90
2015,10,16,14,22,19.00
2015,10,16,14,23,19.00
2015,10,16,14,24,19.00
2015,10,16,14,25,19.10
2015,10,16,14,26,19.10
2015,10,16,14,27,19.00
2015,10,16,14,28,19.00
2015,10,16,14,29,19.00
2015,10,16,14,30,19.00
2015,10,16,14,31,18.90
2015,10,16,14,32,18.90
2015,10,16,14,33,18.90
2015,10,16,14,34,18.90
2015,10,16,14,35,18.90
2015,10,16,14,36,18.90
2015,10,16,14,37,19.00
2015,10,16,14,38,19.00
2015,10,16,14,39,19.00
2015,10,16,14,40,19.10
2015,10,16,14,41,19.10
2015,10,16,14,42,19.10
2015,10,16,14,43,19.10
2015,10,16,14,44,19.10
2015,10,16,14,45,19.10
2015,10,16,14,46,19.20
2015,10,16,14,47,19.20
2015,10,16,14,48,19.20
2015,10,16,14,49,19.20
2015,10,16,14,50,19.20
2015,10,16,14,51,19.30
2015,10,16,14,52,19.30
2015,10,16,14,53,19.30
2015,10,16,14,54,19.30
2015,10,16,14,55,19.40
2015,10,16,14,56,19.40
2015,10,16,14,57,19.40
2015,10,16,14,58,19.40
2015,10,16,14,59,19.50
2015,10,16,15,00,19.50
2015,10,16,15,01,19.50
2015,10,16,15,02,19.50
2015,10,16,15,03,19.50
2015,10,16,15,04,19.50
2015,10,16,15,05,19.50
2015,10,16,15,06,19.50
2015,10,16,15,07,19.50
2015,10,16,15,08,19.50
2015,10,16,15,09,19.50
2015,10,16,15,10,19.50
2015,10,16,15,11,19.50
2015,10,16,15,12,19.60
2015,10,16,15,13,19.60
2015,10,16,15,14,19.60
2015,10,16,15,15,19.60
2015,10,16,15,16,19.70
2015,10,16,15,17,19.70
2015,10,16,15,18,19.70
2015,10,16,15,19,19.70
2015,10,16,15,20,19.70
2015,10,16,15,21,19.80
2015,10,16,15,22,19.80
2015,10,16,15,23,19.80
2015,10,16,15,24,19.80
2015,10,16,15,25,19.80
2015,10,16,15,26,19.90
2015,10,16,15,27,19.90
2015,10,16,15,28,19.90
2015,10,16,15,29,20.00
2015,10,16,15,30,20.00
2015,10,16,15,31,20.00
2015,10,16,15,32,20.10
2015,10,16,15,33,20.10
2015,10,16,15,34,20.10
2015,10,16,15,35,20.10
2015,10,16,15,36,20.10
2015,10,16,15,37,20.10
2015,10,16,15,38,20.20
2015,10,16,15,39,20.20
2015,10,16,15,40,20.20
2015,10,16,15,41,20.20
2015,10,16,15,42,20.20
2015,10,16,15,43,20.20
2015,10,16,15,44,20.20
2015,10,16,15,45,20.20
2015,10,16,15,46,20.20
2015,10,16,15,47,20.30
2015,10,16,15,48,20.30
2015,10,16,15,49,20.30
2015,10,16,15,50,20.40
2015,10,16,15,51,20.40
2015,10,16,15,52,20.40
2015,10,16,15,53,20.50
2015,10,16,15,54,20.50
2015,10,16,15,55,20.60
2015,10,16,15,56,20.60
2015,10,16,15,57,20.60
2015,10,16,15,58,20.60
2015,10,16,15,59,20.60
2015,10,16,16,00,20.60
2015,10,16,16,01,20.60
2015,10,16,16,02,20.60
2015,10,16,16,03,20.60
2015,10,16,16,04,20.60
2015,10,16,16,05,20.60
2015,10,16,16,06,20.60
2015,10,16,16,07,20.60
2015,10,16,16,08,20.60
2015,10,16,16,09,20.60
2015,10,16,16,10,20.60
2015,10,16,16,11,20.60
2015,10,16,16,12,20.60
2015,10,16,16,13,20.60
2015,10,16,16,14,20.60
2015,10,16,16,15,20.60
2015,10,16,16,16,20.60
2015,10,16,16,17,20.60
2015,10,16,16,18,20.60
2015,10,16,16,19,20.60
2015,10,16,16,20,20.60
2015,10,16,16,21,20.60
2015,10,16,16,22,20.60
2015,10,16,16,23,20.60
2015,10,16,16,24,20.60
2015,10,16,16,25,20.60
2015,10,16,16,26,20.60
2015,10,16,16,27,20.70
2015,10,16,16,28,20.70
2015,10,16,16,29,20.70
2015,10,16,16,30,20.70
2015,10,16,16,31,20.80
2015,10,16,16,32,20.80
2015,10,16,16,33,20.80
2015,10,16,16,34,20.80
2015,10,16,16,35,20.80
2015,10,16,16,36,20.90
2015,10,16,16,37,20.80
2015,10,16,16,38,20.90
2015,10,16,16,39,20.80
2015,10,16,16,40,20.80
2015,10,16,16,41,20.80
2015,10,16,16,42,20.80
2015,10,16,16,43,20.80
2015,10,16,16,44,20.70
2015,10,16,16,45,20.70
2015,10,16,16,46,20.60
2015,10,16,16,47,20.60
2015,10,16,16,48,20.50
2015,10,16,16,49,20.50
2015,10,16,16,50,20.40
2015,10,16,16,51,20.40
2015,10,16,16,52,20.30
2015,10,16,16,53,20.30
2015,10,16,16,54,20.20
2015,10,16,16,55,20.20
2015,10,16,16,56,20.10
2015,10,16,16,57,20.00
2015,10,16,16,58,20.00
2015,10,16,16,59,19.90
2015,10,16,17,00,19.80
2015,10,16,17,01,19.70
2015,10,16,17,02,19.70
2015,10,16,17,03,19.60
2015,10,16,17,04,19.50
2015,10,16,17,05,19.50
2015,10,16,17,06,19.40
2015,10,16,17,07,19.30
2015,10,16,17,08,19.30
2015,10,16,17,09,19.20
2015,10,16,17,10,19.10
2015,10,16,17,11,19.10
2015,10,16,17,12,19.00
2015,10,16,17,13,19.00
2015,10,16,17,14,18.90
2015,10,16,17,15,18.80
2015,10,16,17,16,18.80
2015,10,16,17,17,18.70
2015,10,16,17,18,18.70
2015,10,16,17,19,18.60
2015,10,16,17,20,18.60
2015,10,16,17,21,18.50
2015,10,16,17,22,18.40
2015,10,16,17,23,18.40
2015,10,16,17,24,18.30
2015,10,16,17,25,18.30
2015,10,16,17,26,18.20
2015,10,16,17,27,18.20
2015,10,16,17,28,18.20
2015,10,16,17,29,18.10
2015,10,16,17,30,18.10
2015,10,16,17,31,18.00
2015,10,16,17,32,18.00
2015,10,16,17,33,17.90
2015,10,16,17,34,17.90
2015,10,16,17,35,17.80
2015,10,16,17,36,17.70
2015,10,16,17,37,17.60
2015,10,16,17,38,17.60
2015,10,16,17,39,17.50
2015,10,16,17,40,17.40
2015,10,16,17,41,17.40
2015,10,16,17,42,17.30
2015,10,16,17,43,17.30
2015,10,16,17,44,17.20
2015,10,16,17,45,17.20
2015,10,16,17,46,17.10
2015,10,16,17,47,17.00